• en France
  • Liste des pays
  • À 7 jours
  • Température de l'eau
  • Carte satellitaire
  • Carte météo
  • Widgets météo
  • user-avatar
    Se connecter

    Météo par heure à Chadakolob

    Ce jour, 22 Août, Mercredi

    Heure Température Précipitation Vent Pression Humidité
    00:00 +12°C° 0 mm 2 m/s 618 mmHg 64%
    01:00 +10°C° 0 mm 2 m/s 618 mmHg 63%
    02:00 +10°C° 0 mm 2 m/s 618 mmHg 62%
    03:00 +10°C° 0 mm 2 m/s 618 mmHg 61%
    04:00 +12°C° 0 mm 2 m/s 618 mmHg 62%
    05:00 +12°C° 0 mm 2 m/s 618 mmHg 63%
    06:00 +13°C° 0 mm 1 m/s 619 mmHg 64%
    07:00 +15°C° 0,1 mm 1 m/s 619 mmHg 59%
    08:00 +16°C° 0,1 mm 1 m/s 620 mmHg 55%
    09:00 +19°C° 0,1 mm 1 m/s 620 mmHg 51%
    10:00 +20°C° 0,1 mm 1 m/s 621 mmHg 50%
    11:00 +20°C° 0,1 mm 2 m/s 621 mmHg 49%
    12:00 +21°C° 0,1 mm 2 m/s 621 mmHg 47%
    13:00 +21°C° 0,3 mm 2 m/s 621 mmHg 50%
    14:00 +21°C° 0,3 mm 2 m/s 620 mmHg 53%
    15:00 +21°C° 0,3 mm 2 m/s 620 mmHg 55%
    16:00 +20°C° 0,4 mm 2 m/s 620 mmHg 61%
    17:00 +20°C° 0,4 mm 1 m/s 620 mmHg 67%
    18:00 +19°C° 0,4 mm 1 m/s 619 mmHg 73%
    19:00 +18°C° 0,1 mm 1 m/s 619 mmHg 76%
    20:00 +15°C° 0,1 mm 1 m/s 619 mmHg 80%
    21:00 +14°C° 0,1 mm 1 m/s 619 mmHg 83%
    22:00 +14°C° 0 mm 1 m/s 619 mmHg 83%
    23:00 +14°C° 0 mm 1 m/s 619 mmHg 84%

    Demain, 23 Août, Jeudi

    Heure Température Précipitation Vent Pression Humidité
    00:00 +13°C° 0 mm 1 m/s 619 mmHg 84%
    01:00 +13°C° 0 mm 1 m/s 619 mmHg 84%
    02:00 +13°C° 0 mm 1 m/s 619 mmHg 84%
    03:00 +12°C° 0 mm 1 m/s 619 mmHg 84%
    04:00 +13°C° 0 mm 1 m/s 619 mmHg 83%
    05:00 +13°C° 0 mm 1 m/s 619 mmHg 83%
    06:00 +13°C° 0 mm 1 m/s 620 mmHg 82%
    07:00 +15°C° 0 mm 1 m/s 620 mmHg 75%
    08:00 +18°C° 0 mm 1 m/s 621 mmHg 68%
    09:00 +20°C° 0 mm 1 m/s 622 mmHg 61%
    10:00 +20°C° 0,1 mm 1 m/s 622 mmHg 59%
    11:00 +20°C° 0,1 mm 2 m/s 622 mmHg 57%
    12:00 +21°C° 0,1 mm 2 m/s 622 mmHg 56%
    13:00 +20°C° 0,1 mm 2 m/s 622 mmHg 57%
    14:00 +20°C° 0,1 mm 2 m/s 622 mmHg 57%
    15:00 +20°C° 0,1 mm 2 m/s 622 mmHg 58%
    16:00 +20°C° 0 mm 1 m/s 621 mmHg 62%
    17:00 +19°C° 0 mm 1 m/s 621 mmHg 66%
    18:00 +19°C° 0 mm 1 m/s 621 mmHg 69%
    19:00 +16°C° 0 mm 1 m/s 621 mmHg 73%
    20:00 +15°C° 0 mm 1 m/s 620 mmHg 76%
    21:00 +13°C° 0 mm 1 m/s 620 mmHg 79%
    22:00 +13°C° 0 mm 1 m/s 620 mmHg 78%
    23:00 +13°C° 0 mm 1 m/s 620 mmHg 78%

    Après-demain, 24 Août, Vendredi

    Heure Température Précipitation Vent Pression Humidité
    00:00 +12°C° 0 mm 1 m/s 620 mmHg 77%
    01:00 +12°C° 0 mm 2 m/s 620 mmHg 77%
    02:00 +12°C° 0 mm 2 m/s 620 mmHg 77%
    03:00 +12°C° 0 mm 2 m/s 620 mmHg 77%
    04:00 +12°C° 0 mm 2 m/s 620 mmHg 77%
    05:00 +12°C° 0 mm 2 m/s 620 mmHg 77%
    06:00 +13°C° 0 mm 2 m/s 620 mmHg 78%
    07:00 +15°C° 0 mm 2 m/s 621 mmHg 71%
    08:00 +17°C° 0 mm 2 m/s 622 mmHg 63%
    09:00 +19°C° 0 mm 2 m/s 622 mmHg 56%
    10:00 +20°C° 0 mm 2 m/s 622 mmHg 54%
    11:00 +21°C° 0 mm 2 m/s 623 mmHg 53%
    12:00 +23°C° 0 mm 2 m/s 623 mmHg 51%
    13:00 +23°C° 0,1 mm 2 m/s 622 mmHg 51%
    14:00 +23°C° 0,1 mm 2 m/s 622 mmHg 52%
    15:00 +23°C° 0,1 mm 2 m/s 622 mmHg 52%
    16:00 +21°C° 0,1 mm 2 m/s 621 mmHg 57%
    17:00 +19°C° 0,1 mm 2 m/s 621 mmHg 61%
    18:00 +19°C° 0,1 mm 1 m/s 620 mmHg 66%
    19:00 +18°C° 0 mm 1 m/s 620 mmHg 67%
    20:00 +15°C° 0 mm 1 m/s 620 mmHg 67%
    21:00 +14°C° 0 mm 1 m/s 620 mmHg 67%
    22:00 +13°C° 0 mm 2 m/s 619 mmHg 66%
    23:00 +13°C° 0 mm 2 m/s 619 mmHg 65%

    25 Août, Samedi

    Heure Température Précipitation Vent Pression Humidité
    00:00 +13°C° 0 mm 2 m/s 619 mmHg 64%
    01:00 +13°C° 0 mm 2 m/s 619 mmHg 66%
    02:00 +12°C° 0 mm 2 m/s 618 mmHg 68%
    03:00 +12°C° 0 mm 2 m/s 618 mmHg 70%
    04:00 +13°C° 0 mm 1 m/s 618 mmHg 71%
    05:00 +13°C° 0 mm 1 m/s 618 mmHg 72%
    06:00 +13°C° 0 mm 1 m/s 619 mmHg 73%
    07:00 +15°C° 0 mm 1 m/s 619 mmHg 67%
    08:00 +19°C° 0 mm 1 m/s 620 mmHg 61%
    09:00 +21°C° 0 mm 1 m/s 621 mmHg 55%
    10:00 +21°C° 0,3 mm 2 m/s 621 mmHg 54%
    11:00 +21°C° 0,3 mm 2 m/s 621 mmHg 54%
    12:00 +23°C° 0,3 mm 2 m/s 621 mmHg 53%
    13:00 +23°C° 0,6 mm 2 m/s 621 mmHg 54%
    14:00 +23°C° 0,6 mm 2 m/s 621 mmHg 55%
    15:00 +23°C° 0,6 mm 2 m/s 621 mmHg 56%
    16:00 +21°C° 0,2 mm 2 m/s 620 mmHg 60%
    17:00 +21°C° 0,2 mm 1 m/s 620 mmHg 63%
    18:00 +20°C° 0,2 mm 1 m/s 620 mmHg 67%
    19:00 +18°C° 0 mm 1 m/s 620 mmHg 70%
    20:00 +16°C° 0 mm 1 m/s 619 mmHg 73%
    21:00 +14°C° 0 mm 2 m/s 619 mmHg 76%
    22:00 +14°C° 0 mm 2 m/s 619 mmHg 75%
    23:00 +13°C° 0 mm 2 m/s 618 mmHg 73%

    26 Août, Dimanche

    Heure Température Précipitation Vent Pression Humidité
    00:00 +13°C° 0 mm 2 m/s 618 mmHg 72%
    01:00 +12°C° 0 mm 2 m/s 618 mmHg 70%
    02:00 +12°C° 0 mm 2 m/s 618 mmHg 68%
    03:00 +12°C° 0 mm 2 m/s 617 mmHg 66%
    04:00 +12°C° 0 mm 2 m/s 617 mmHg 64%
    05:00 +12°C° 0 mm 2 m/s 618 mmHg 62%
    06:00 +13°C° 0 mm 2 m/s 618 mmHg 61%
    07:00 +15°C° 0 mm 2 m/s 618 mmHg 54%
    08:00 +18°C° 0 mm 2 m/s 619 mmHg 48%
    09:00 +20°C° 0 mm 2 m/s 620 mmHg 41%
    10:00 +23°C° 0 mm 2 m/s 620 mmHg 40%
    11:00 +24°C° 0 mm 2 m/s 620 mmHg 38%
    12:00 +25°C° 0 mm 2 m/s 620 mmHg 37%
    13:00 +25°C° 0 mm 2 m/s 620 mmHg 37%
    14:00 +25°C° 0 mm 2 m/s 620 mmHg 37%
    15:00 +25°C° 0 mm 2 m/s 619 mmHg 37%
    16:00 +23°C° 0 mm 2 m/s 619 mmHg 43%
    17:00 +22°C° 0 mm 1 m/s 618 mmHg 49%
    18:00 +20°C° 0 mm 1 m/s 618 mmHg 55%
    19:00 +19°C° 0 mm 1 m/s 617 mmHg 55%
    20:00 +16°C° 0 mm 1 m/s 617 mmHg 56%
    21:00 +14°C° 0 mm 1 m/s 616 mmHg 56%
    22:00 +14°C° 0 mm 2 m/s 616 mmHg 53%
    23:00 +14°C° 0 mm 2 m/s 616 mmHg 49%

    27 Août, Lundi

    Heure Température Précipitation Vent Pression Humidité
    00:00 +14°C° 0 mm 2 m/s 616 mmHg 46%
    01:00 +14°C° 0 mm 2 m/s 616 mmHg 45%
    02:00 +13°C° 0 mm 2 m/s 616 mmHg 44%
    03:00 +13°C° 0 mm 2 m/s 616 mmHg 44%
    04:00 +14°C° 0 mm 1 m/s 616 mmHg 46%
    05:00 +14°C° 0 mm 1 m/s 616 mmHg 49%
    06:00 +14°C° 0 mm 1 m/s 617 mmHg 52%
    07:00 +16°C° 0 mm 1 m/s 617 mmHg 50%
    08:00 +19°C° 0 mm 1 m/s 618 mmHg 47%
    09:00 +21°C° 0 mm 1 m/s 619 mmHg 44%
    10:00 +21°C° 0 mm 2 m/s 619 mmHg 44%
    11:00 +23°C° 0 mm 2 m/s 619 mmHg 44%
    12:00 +24°C° 0 mm 2 m/s 619 mmHg 44%
    13:00 +24°C° 0,6 mm 2 m/s 619 mmHg 45%
    14:00 +23°C° 0,6 mm 2 m/s 619 mmHg 47%
    15:00 +23°C° 0,6 mm 2 m/s 618 mmHg 48%
    16:00 +21°C° 0,3 mm 2 m/s 618 mmHg 53%
    17:00 +20°C° 0,3 mm 2 m/s 618 mmHg 58%
    18:00 +19°C° 0,3 mm 1 m/s 618 mmHg 63%
    19:00 +18°C° 0,3 mm 1 m/s 618 mmHg 66%
    20:00 +15°C° 0,3 mm 1 m/s 617 mmHg 69%
    21:00 +14°C° 0,3 mm 1 m/s 617 mmHg 72%
    22:00 +14°C° 0 mm 1 m/s 617 mmHg 71%
    23:00 +13°C° 0 mm 1 m/s 617 mmHg 69%
    Voir plus